Simultaneous Nadir Overpasses (SNOs) Predictions

Prediction of SNOs between NOAA-20 and PACE Satellite Orbit:

Table of predicted SNOs for the next 14.0 days since TLE Epoch: 5/31/2025
Index Date (NOAA-20) Time (NOAA-20) Lat,Lon (NOAA-20) SZA (NOAA-20 ) Date (PACE) Time (PACE) Lat,Lon (PACE) SZA (PACE ) Distance(km) Time Diff (sec)
1 05/31/2025 20:50:56 -79.43, 13.20 120.76 05/31/2025 20:50:45 -79.43, 13.23 120.76 0.72 11
2 06/03/2025 01:17:26 -79.53, -54.23 120.87 06/03/2025 01:18:00 -79.53, -54.27 120.87 0.93 34
3 06/03/2025 02:08:04 79.29, 114.96 58.74 06/03/2025 02:07:04 79.29, 115.01 58.76 1.14 60
4 06/05/2025 06:34:33 79.36, 47.80 58.62 06/05/2025 06:34:18 79.37, 47.68 58.65 2.61 15
5 06/07/2025 11:01:04 79.50, -19.93 58.65 06/07/2025 11:01:33 79.50, -20.00 58.64 1.44 29
6 06/07/2025 11:51:42 -79.27, 149.22 121.75 06/07/2025 11:50:38 -79.27, 149.23 121.72 0.38 64
7 06/09/2025 15:27:34 79.61, -87.43 58.65 06/09/2025 15:28:47 79.61, -87.52 58.63 1.79 73
8 06/09/2025 16:18:13 -79.41, 81.50 121.69 06/09/2025 16:17:53 -79.41, 81.51 121.68 0.24 20
9 06/11/2025 20:44:43 -79.52, 14.00 121.64 06/11/2025 20:45:07 -79.53, 13.94 121.64 1.40 24
10 06/11/2025 21:35:20 79.25,-176.55 57.91 06/11/2025 21:34:10 79.26,-176.60 57.95 1.09 70
11 06/14/2025 01:11:14 -79.66, -53.81 121.51 06/14/2025 01:12:21 -79.65, -53.72 121.56 1.86 67



Historial Predications of SNOs between NOAA-20 and PACE
